When you browse on this site, cookies collect data to enhance your experience and personalize the content and advertising you see.
Visit our Privacy Policy to learn more. By continuing to use the site, you agree to this use of cookies and data.
  • In United Kingdom
  • List of Countries
  • For 7 days
  • Water Temperature
  • Satellite Maps
  • Weather Map
  • Weather Widgets
  • user-avatar
    Login

    Hourly Weather Liberia

    Today, 25 June, Tuesday

    Time Temperature Precipitation Wind Pressure Humidity
    00:00 +26°C° 0 mm 1 mps 745 mmHg 88%
    01:00 +26°C° 0 mm 1 mps 745 mmHg 88%
    02:00 +26°C° 0 mm 1 mps 744 mmHg 88%
    03:00 +26°C° 0 mm 1 mps 744 mmHg 89%
    04:00 +26°C° 0 mm 1 mps 744 mmHg 89%
    05:00 +26°C° 0 mm 1 mps 745 mmHg 90%
    06:00 +26°C° 0 mm 1 mps 745 mmHg 91%
    07:00 +27°C° 0 mm 1 mps 745 mmHg 86%
    08:00 +28°C° 0 mm 1 mps 746 mmHg 81%
    09:00 +30°C° 0 mm 1 mps 746 mmHg 75%
    10:00 +30°C° 0.2 mm 1 mps 746 mmHg 75%
    11:00 +30°C° 0.2 mm 2 mps 746 mmHg 76%
    12:00 +30°C° 0.2 mm 2 mps 746 mmHg 76%
    13:00 +31°C° 0 mm 2 mps 745 mmHg 74%
    14:00 +31°C° 0 mm 2 mps 744 mmHg 72%
    15:00 +32°C° 0 mm 2 mps 744 mmHg 71%
    16:00 +30°C° 0.5 mm 2 mps 744 mmHg 75%
    17:00 +29°C° 0.5 mm 2 mps 744 mmHg 79%
    18:00 +28°C° 0.5 mm 2 mps 744 mmHg 83%
    19:00 +28°C° 0 mm 1 mps 744 mmHg 85%
    20:00 +27°C° 0 mm 1 mps 745 mmHg 86%
    21:00 +27°C° 0 mm 1 mps 745 mmHg 87%
    22:00 +27°C° 0 mm 1 mps 745 mmHg 89%
    23:00 +26°C° 0 mm 1 mps 745 mmHg 90%

    Tomorrow, 26 June, Wednesday

    Time Temperature Precipitation Wind Pressure Humidity
    00:00 +26°C° 0 mm 1 mps 745 mmHg 91%
    01:00 +26°C° 0 mm 1 mps 745 mmHg 91%
    02:00 +26°C° 0 mm 1 mps 744 mmHg 91%
    03:00 +26°C° 0 mm 1 mps 744 mmHg 91%
    04:00 +26°C° 0.1 mm 1 mps 744 mmHg 91%
    05:00 +26°C° 0.1 mm 1 mps 744 mmHg 90%
    06:00 +26°C° 0.1 mm 2 mps 744 mmHg 90%
    07:00 +28°C° 0 mm 2 mps 744 mmHg 84%
    08:00 +29°C° 0 mm 2 mps 745 mmHg 78%
    09:00 +31°C° 0 mm 2 mps 745 mmHg 72%
    10:00 +31°C° 0.1 mm 3 mps 745 mmHg 69%
    11:00 +33°C° 0.1 mm 3 mps 745 mmHg 66%
    12:00 +34°C° 0.1 mm 4 mps 744 mmHg 63%
    13:00 +34°C° 0.1 mm 4 mps 744 mmHg 64%
    14:00 +33°C° 0.1 mm 4 mps 743 mmHg 65%
    15:00 +33°C° 0.1 mm 4 mps 743 mmHg 67%
    16:00 +32°C° 0.1 mm 4 mps 743 mmHg 71%
    17:00 +29°C° 0.1 mm 4 mps 743 mmHg 75%
    18:00 +28°C° 0.1 mm 3 mps 743 mmHg 79%
    19:00 +27°C° 0 mm 3 mps 744 mmHg 80%
    20:00 +27°C° 0 mm 3 mps 744 mmHg 81%
    21:00 +27°C° 0 mm 3 mps 745 mmHg 83%
    22:00 +26°C° 0 mm 3 mps 744 mmHg 83%
    23:00 +26°C° 0 mm 3 mps 744 mmHg 84%

    Day after tomorrow, 27 June, Thursday

    Time Temperature Precipitation Wind Pressure Humidity
    00:00 +26°C° 0 mm 3 mps 744 mmHg 84%
    01:00 +26°C° 0 mm 3 mps 744 mmHg 85%
    02:00 +26°C° 0 mm 3 mps 744 mmHg 85%
    03:00 +25°C° 0 mm 2 mps 743 mmHg 86%
    04:00 +26°C° 0 mm 2 mps 743 mmHg 86%
    05:00 +26°C° 0 mm 2 mps 743 mmHg 87%
    06:00 +26°C° 0 mm 2 mps 743 mmHg 87%
    07:00 +27°C° 0 mm 3 mps 744 mmHg 82%
    08:00 +29°C° 0 mm 4 mps 744 mmHg 76%
    09:00 +30°C° 0 mm 4 mps 745 mmHg 71%
    10:00 +32°C° 0.1 mm 4 mps 744 mmHg 68%
    11:00 +32°C° 0.1 mm 4 mps 744 mmHg 66%
    12:00 +33°C° 0.1 mm 5 mps 744 mmHg 64%
    13:00 +33°C° 0.3 mm 5 mps 744 mmHg 66%
    14:00 +32°C° 0.3 mm 5 mps 743 mmHg 68%
    15:00 +32°C° 0.3 mm 6 mps 743 mmHg 71%
    16:00 +29°C° 0.1 mm 5 mps 743 mmHg 74%
    17:00 +28°C° 0.1 mm 4 mps 743 mmHg 78%
    18:00 +27°C° 0.1 mm 4 mps 743 mmHg 81%
    19:00 +27°C° 0 mm 3 mps 744 mmHg 81%
    20:00 +27°C° 0 mm 3 mps 744 mmHg 81%
    21:00 +26°C° 0 mm 3 mps 745 mmHg 81%
    22:00 +26°C° 0 mm 3 mps 745 mmHg 82%
    23:00 +26°C° 0 mm 3 mps 744 mmHg 83%

    28 June, Friday

    Time Temperature Precipitation Wind Pressure Humidity
    00:00 +26°C° 0 mm 3 mps 744 mmHg 84%
    01:00 +26°C° 0 mm 3 mps 744 mmHg 84%
    02:00 +26°C° 0 mm 3 mps 743 mmHg 84%
    03:00 +26°C° 0 mm 3 mps 743 mmHg 84%
    04:00 +26°C° 0 mm 3 mps 743 mmHg 84%
    05:00 +26°C° 0 mm 3 mps 743 mmHg 85%
    06:00 +25°C° 0 mm 3 mps 744 mmHg 86%
    07:00 +27°C° 0 mm 4 mps 744 mmHg 79%
    08:00 +28°C° 0 mm 5 mps 745 mmHg 72%
    09:00 +30°C° 0 mm 5 mps 745 mmHg 65%
    10:00 +30°C° 0 mm 5 mps 745 mmHg 63%
    11:00 +32°C° 0 mm 5 mps 745 mmHg 60%
    12:00 +33°C° 0 mm 6 mps 744 mmHg 58%
    13:00 +33°C° 0 mm 5 mps 744 mmHg 59%
    14:00 +33°C° 0 mm 5 mps 743 mmHg 60%
    15:00 +33°C° 0 mm 4 mps 743 mmHg 60%
    16:00 +30°C° 0 mm 4 mps 743 mmHg 66%
    17:00 +29°C° 0 mm 4 mps 743 mmHg 72%
    18:00 +27°C° 0 mm 3 mps 744 mmHg 78%
    19:00 +27°C° 0 mm 3 mps 744 mmHg 79%
    20:00 +26°C° 0 mm 3 mps 745 mmHg 81%
    21:00 +26°C° 0 mm 3 mps 745 mmHg 83%
    22:00 +26°C° 0 mm 3 mps 745 mmHg 84%
    23:00 +25°C° 0 mm 2 mps 745 mmHg 85%

    29 June, Saturday

    Time Temperature Precipitation Wind Pressure Humidity
    00:00 +25°C° 0 mm 2 mps 745 mmHg 86%
    01:00 +25°C° 0 mm 2 mps 744 mmHg 87%
    02:00 +25°C° 0 mm 2 mps 744 mmHg 87%
    03:00 +25°C° 0 mm 2 mps 744 mmHg 88%
    04:00 +25°C° 0 mm 2 mps 744 mmHg 88%
    05:00 +25°C° 0 mm 2 mps 744 mmHg 88%
    06:00 +25°C° 0 mm 2 mps 744 mmHg 88%
    07:00 +27°C° 0 mm 2 mps 745 mmHg 82%
    08:00 +28°C° 0 mm 3 mps 745 mmHg 77%
    09:00 +30°C° 0 mm 3 mps 746 mmHg 71%
    10:00 +31°C° 0.2 mm 3 mps 745 mmHg 70%
    11:00 +31°C° 0.2 mm 3 mps 745 mmHg 68%
    12:00 +33°C° 0.2 mm 3 mps 745 mmHg 67%
    13:00 +31°C° 0.7 mm 3 mps 744 mmHg 68%
    14:00 +31°C° 0.7 mm 3 mps 744 mmHg 70%
    15:00 +31°C° 0.7 mm 3 mps 743 mmHg 71%
    16:00 +30°C° 0.4 mm 3 mps 744 mmHg 74%
    17:00 +28°C° 0.4 mm 2 mps 744 mmHg 78%
    18:00 +27°C° 0.4 mm 2 mps 744 mmHg 81%
    19:00 +27°C° 0.1 mm 2 mps 745 mmHg 84%
    20:00 +26°C° 0.1 mm 2 mps 745 mmHg 87%
    21:00 +25°C° 0.1 mm 1 mps 746 mmHg 90%
    22:00 +26°C° 0 mm 1 mps 745 mmHg 89%
    23:00 +26°C° 0 mm 1 mps 745 mmHg 88%

    30 June, Sunday

    Time Temperature Precipitation Wind Pressure Humidity
    00:00 +26°C° 0 mm 1 mps 745 mmHg 87%
    01:00 +26°C° 0 mm 1 mps 744 mmHg 88%
    02:00 +25°C° 0 mm 1 mps 744 mmHg 89%
    03:00 +25°C° 0 mm 1 mps 743 mmHg 90%
    04:00 +25°C° 0 mm 1 mps 744 mmHg 91%
    05:00 +25°C° 0 mm 1 mps 744 mmHg 91%
    06:00 +26°C° 0 mm 1 mps 744 mmHg 91%
    07:00 +27°C° 0 mm 1 mps 745 mmHg 87%
    08:00 +28°C° 0 mm 1 mps 745 mmHg 83%
    09:00 +29°C° 0 mm 1 mps 745 mmHg 79%
    10:00 +30°C° 0 mm 1 mps 745 mmHg 74%
    11:00 +32°C° 0 mm 2 mps 744 mmHg 69%
    12:00 +34°C° 0 mm 2 mps 744 mmHg 63%
    13:00 +34°C° 1.2 mm 2 mps 744 mmHg 67%
    14:00 +32°C° 1.2 mm 2 mps 743 mmHg 71%
    15:00 +31°C° 1.2 mm 2 mps 743 mmHg 75%
    16:00 +30°C° 1.2 mm 1 mps 743 mmHg 80%
    17:00 +29°C° 1.2 mm 1 mps 743 mmHg 85%
    18:00 +28°C° 1.2 mm 1 mps 743 mmHg 90%
    19:00 +27°C° 0 mm 1 mps 744 mmHg 91%
    20:00 +27°C° 0 mm 1 mps 745 mmHg 91%
    21:00 +26°C° 0 mm 1 mps 745 mmHg 91%
    22:00 +26°C° 0 mm 1 mps 745 mmHg 91%
    23:00 +26°C° 0 mm 1 mps 745 mmHg 92%
    Show more